Flag for U.S.A. Weather past 2 weeks in Oklahoma City, Oklahoma, U.S.A.

Now
67 °F

Overcast.


Feels Like: 67 °F
Forecast: 65 / 76 °F
Wind: 7 mph from North

Location: Will Rogers World Airport

Current Time: Jul 8, 2015 at 12:16:37 AM

Latest Report: Jul 7, 2015 at 11:52 PM


Visibility: 3 mi

Pressure: 29.93 "Hg

Humidity: 100%

Dew point: 67 °F

Location of Oklahoma CityLocation

Historic Weather in Oklahoma City — Graph

°F

Oklahoma City temperature yesterday

Maximum temperature yesterday: 77 °F (at 10:52 AM)
Minimum temperature yesterday: 67 °F (at 5:52 PM)
Average temperature yesterday: 71 °F

Past Weeks' High & Low Weather Summary

 TemperatureHumidityPressure
High96 °F (Jun 29, 2:52 PM)100% (Jul 2, 9:57 PM)30.11 "Hg (Jul 2, 9:57 PM)
Low63 °F (Jun 28, 6:52 AM)35% (Jun 28, 1:52 PM)29.77 "Hg (Jul 6, 5:52 PM)
Average80 °F70%29.94 "Hg
* Reported Jun 22 11:52 PM — Jul 7 11:01 PM, Oklahoma City, Weather by CustomWeather, © 2015

Note: Actual official high and low records may vary slightly from our data, if they occured in-between our weather recording intervals... More about our weather records

Advertising

Oklahoma City weather history for previous 24 hours

 ConditionsComfort  
Time TempWeatherWind HumidityBarometerVisibility
11:01 PM
Tue, Jul 7
67 °FLight rain. Fog.6 mph97%29.97 "Hg3 mi
9:52 PM67 °FRain. Fog.15 mph97%29.92 "Hg3 mi
8:52 PM67 °FLight rain. Fog.13 mph97%29.93 "Hg1 mi
8:02 PM67 °FRain. Fog.10 mph97%29.97 "Hg2 mi
7:52 PM67 °FLight rain. Fog.12 mph100%29.94 "Hg3 mi
6:52 PM68 °FLight rain. Low clouds.12 mph96%29.93 "Hg9 mi
5:52 PM67 °FLight rain. Low clouds.14 mph97%29.94 "Hg8 mi
4:52 PM69 °FLight rain. Low clouds.14 mph96%29.94 "Hg9 mi
3:52 PM69 °FLight rain. Fog.15 mph96%29.96 "Hg5 mi
2:52 PM70 °FLight rain. Fog.13 mph97%29.97 "Hg3 mi
1:52 PM71 °FLight rain. Fog.13 mph96%29.97 "Hg3 mi
12:52 PM72 °FRain. Fog.15 mph97%29.96 "Hg2 mi
11:52 AM76 °FCloudy.8 mph82%29.95 "Hg10 mi
10:52 AM77 °FMostly cloudy.9 mph82%29.94 "Hg10 mi
10:03 AM75 °FMostly cloudy.6 mph88%30.00 "Hg10 mi
9:52 AM75 °FMore clouds than sun.7 mph88%29.95 "Hg10 mi
8:52 AM74 °FLow clouds.7 mph88%29.94 "Hg10 mi
7:52 AM72 °FLow clouds.7 mph97%29.93 "Hg10 mi
6:52 AM72 °FMostly cloudy.9 mph97%29.92 "Hg10 mi
5:52 AM72 °FMostly cloudy.7 mph97%29.91 "Hg10 mi
4:52 AM71 °FOvercast.5 mph96%29.89 "Hg10 mi
3:52 AM71 °FMostly cloudy.3 mph96%29.88 "Hg10 mi
2:52 AM71 °FMostly cloudy.8 mph100%29.85 "Hg10 mi
1:52 AM71 °FLight rain. Mostly cloudy.5 mph100%29.89 "Hg10 mi
12:52 AM71 °FThunderstorms. Fog.9 mph96%29.95 "Hg6 mi
12:02 AM72 °FStrong thunderstorms. Fog.12 mph97%30.02 "Hg4 mi
Weather by CustomWeather, © 2015

See weather overviewHow to use our weather pages